Time,TemperatureF,DewpointF,PressureIn,WindDirection,WindDirectionDegrees,WindSpeedMPH,WindSpeedGustMPH,Humidity,HourlyPrecipIn,Conditions,Clouds,dailyrainin,SoftwareType,DateUTC
2013-01-19 00:02:00,27.1,16.5,30.36,NE,38,4.0,5.0,64,0.00,,,0.00,Wunderground v.1.15,2013-01-19 07:02:00,
2013-01-19 00:07:00,26.9,16.7,30.36,NE,42,4.0,5.0,65,0.00,,,0.00,Wunderground v.1.15,2013-01-19 07:07:00,
2013-01-19 00:12:00,26.7,16.9,30.36,NE,42,1.0,4.0,66,0.00,,,0.00,Wunderground v.1.15,2013-01-19 07:12:00,
2013-01-19 00:18:00,26.5,17.0,30.36,NE,42,2.0,4.0,67,0.00,,,0.00,Wunderground v.1.15,2013-01-19 07:18:00,
2013-01-19 00:24:00,26.4,16.9,30.36,NE,41,1.0,4.0,67,0.00,,,0.00,Wunderground v.1.15,2013-01-19 07:24:00,
2013-01-19 00:31:00,26.3,16.8,30.36,NE,41,0.0,1.0,67,0.00,,,0.00,Wunderground v.1.15,2013-01-19 07:31:00,
2013-01-19 00:37:00,26.1,16.6,30.36,NE,42,0.0,1.0,67,0.00,,,0.00,Wunderground v.1.15,2013-01-19 07:37:00,
2013-01-19 00:43:00,25.8,16.7,30.36,NE,42,0.0,2.0,68,0.00,,,0.00,Wunderground v.1.15,2013-01-19 07:43:00,
2013-01-19 00:48:00,25.6,16.5,30.36,NE,42,0.0,2.0,68,0.00,,,0.00,Wunderground v.1.15,2013-01-19 07:48:00,
2013-01-19 00:53:00,25.4,16.3,30.36,NE,42,0.0,1.0,68,0.00,,,0.00,Wunderground v.1.15,2013-01-19 07:53:00,
2013-01-19 00:58:00,25.2,16.1,30.36,NE,40,2.0,2.0,68,0.00,,,0.00,Wunderground v.1.15,2013-01-19 07:58:00,
2013-01-19 01:04:00,24.9,15.5,30.36,NE,43,1.0,2.0,67,0.00,,,0.00,Wunderground v.1.15,2013-01-19 08:04:00,
2013-01-19 01:11:00,24.6,15.9,30.37,NE,41,2.0,3.0,69,0.00,,,0.00,Wunderground v.1.15,2013-01-19 08:11:00,
2013-01-19 01:16:00,24.6,16.5,30.37,NE,42,2.0,3.0,71,0.00,,,0.00,Wunderground v.1.15,2013-01-19 08:16:00,
2013-01-19 01:22:00,24.5,16.1,30.37,NE,40,2.0,2.0,70,0.00,,,0.00,Wunderground v.1.15,2013-01-19 08:22:00,
2013-01-19 01:27:00,24.6,16.9,30.37,NE,42,0.0,3.0,72,0.00,,,0.00,Wunderground v.1.15,2013-01-19 08:27:00,
2013-01-19 01:33:00,24.6,16.9,30.37,NE,42,1.0,3.0,72,0.00,,,0.00,Wunderground v.1.15,2013-01-19 08:33:00,
2013-01-19 01:38:00,24.4,16.7,30.37,NE,41,5.0,5.0,72,0.00,,,0.00,Wunderground v.1.15,2013-01-19 08:38:00,
2013-01-19 01:43:00,24.3,16.6,30.37,NE,42,2.0,4.0,72,0.00,,,0.00,Wunderground v.1.15,2013-01-19 08:43:00,
2013-01-19 01:49:00,24.2,17.1,30.38,NNE,32,6.0,6.0,74,0.00,,,0.00,Wunderground v.1.15,2013-01-19 08:49:00,
2013-01-19 01:54:00,24.3,17.5,30.37,NNE,29,1.0,5.0,75,0.00,,,0.00,Wunderground v.1.15,2013-01-19 08:54:00,
2013-01-19 02:01:00,24.9,18.1,30.38,North,350,4.0,4.0,75,0.00,,,0.00,Wunderground v.1.15,2013-01-19 09:01:00,
2013-01-19 02:06:00,25.1,18.0,30.38,NNE,15,5.0,6.0,74,0.00,,,0.00,Wunderground v.1.15,2013-01-19 09:06:00,
2013-01-19 02:11:00,25.4,18.3,30.38,North,9,3.0,6.0,74,0.00,,,0.00,Wunderground v.1.15,2013-01-19 09:11:00,
2013-01-19 02:16:00,25.6,18.1,30.38,North,355,3.0,6.0,73,0.00,,,0.00,Wunderground v.1.15,2013-01-19 09:16:00,
2013-01-19 02:21:00,26.2,18.7,30.38,NNE,12,5.0,5.0,73,0.00,,,0.00,Wunderground v.1.15,2013-01-19 09:21:00,
2013-01-19 02:27:00,26.7,18.9,30.38,NNE,31,7.0,7.0,72,0.00,,,0.00,Wunderground v.1.15,2013-01-19 09:27:00,
2013-01-19 02:32:00,27.0,18.5,30.38,North,350,4.0,7.0,70,0.00,,,0.00,Wunderground v.1.15,2013-01-19 09:32:00,
2013-01-19 02:37:00,27.0,18.5,30.38,NE,35,5.0,8.0,70,0.00,,,0.00,Wunderground v.1.15,2013-01-19 09:37:00,
2013-01-19 02:42:00,27.1,18.6,30.38,NE,43,7.0,7.0,70,0.00,,,0.00,Wunderground v.1.15,2013-01-19 09:42:00,
2013-01-19 02:47:00,27.4,18.9,30.38,NNE,15,5.0,7.0,70,0.00,,,0.00,Wunderground v.1.15,2013-01-19 09:47:00,
2013-01-19 02:52:00,27.7,18.8,30.38,NNE,19,2.0,6.0,69,0.00,,,0.00,Wunderground v.1.15,2013-01-19 09:52:00,
2013-01-19 02:57:00,27.8,18.6,30.38,NNE,15,5.0,6.0,68,0.00,,,0.00,Wunderground v.1.15,2013-01-19 09:57:00,
2013-01-19 03:02:00,27.6,18.4,30.38,NNE,32,6.0,7.0,68,0.00,,,0.00,Wunderground v.1.15,2013-01-19 10:02:00,
2013-01-19 03:07:00,27.6,18.8,30.38,NNE,24,6.0,9.0,69,0.00,,,0.00,Wunderground v.1.15,2013-01-19 10:07:00,
2013-01-19 03:12:00,27.6,18.4,30.38,NNE,29,3.0,5.0,68,0.00,,,0.00,Wunderground v.1.15,2013-01-19 10:12:00,
2013-01-19 03:17:00,27.5,18.3,30.37,NNE,13,5.0,6.0,68,0.00,,,0.00,Wunderground v.1.15,2013-01-19 10:17:00,
2013-01-19 03:22:00,27.2,18.0,30.37,NNE,22,2.0,5.0,68,0.00,,,0.00,Wunderground v.1.15,2013-01-19 10:22:00,
2013-01-19 03:27:00,26.8,17.6,30.37,NNE,20,2.0,6.0,68,0.00,,,0.00,Wunderground v.1.15,2013-01-19 10:27:00,
2013-01-19 03:32:00,26.5,18.0,30.37,NNE,32,4.0,4.0,70,0.00,,,0.00,Wunderground v.1.15,2013-01-19 10:32:00,
2013-01-19 03:37:00,26.3,17.5,30.37,NNE,26,2.0,5.0,69,0.00,,,0.00,Wunderground v.1.15,2013-01-19 10:37:00,
2013-01-19 03:42:00,26.0,17.2,30.37,NNE,30,3.0,4.0,69,0.00,,,0.00,Wunderground v.1.15,2013-01-19 10:42:00,
2013-01-19 03:47:00,25.8,17.4,30.37,NNE,18,4.0,6.0,70,0.00,,,0.00,Wunderground v.1.15,2013-01-19 10:47:00,
2013-01-19 03:52:00,25.5,17.4,30.37,NE,38,2.0,3.0,71,0.00,,,0.00,Wunderground v.1.15,2013-01-19 10:52:00,
2013-01-19 03:57:00,25.5,17.7,30.37,NNE,24,1.0,5.0,72,0.00,,,0.00,Wunderground v.1.15,2013-01-19 10:57:00,
2013-01-19 04:02:00,25.4,17.3,30.37,NNE,29,3.0,5.0,71,0.00,,,0.00,Wunderground v.1.15,2013-01-19 11:02:00,
2013-01-19 04:08:00,25.3,17.2,30.37,NE,42,6.0,8.0,71,0.00,,,0.00,Wunderground v.1.15,2013-01-19 11:08:00,
2013-01-19 04:13:00,25.1,17.3,30.37,NNE,27,3.0,6.0,72,0.00,,,0.00,Wunderground v.1.15,2013-01-19 11:13:00,
2013-01-19 05:48:00,25.5,17.4,30.38,NNE,30,5.0,8.0,71,0.00,,,0.00,Wunderground v.1.15,2013-01-19 12:48:00,
2013-01-19 05:53:00,25.6,17.2,30.38,NE,36,3.0,6.0,70,0.00,,,0.00,Wunderground v.1.15,2013-01-19 12:53:00,
2013-01-19 05:58:00,25.3,16.9,30.38,NNE,30,0.0,6.0,70,0.00,,,0.00,Wunderground v.1.15,2013-01-19 12:58:00,
2013-01-19 06:03:00,25.0,16.6,30.38,NNE,30,1.0,3.0,70,0.00,,,0.00,Wunderground v.1.15,2013-01-19 13:03:00,
2013-01-19 06:08:00,24.5,16.1,30.38,NNE,13,3.0,3.0,70,0.00,,,0.00,Wunderground v.1.15,2013-01-19 13:08:00,
2013-01-19 06:14:00,24.0,16.3,30.39,NNE,13,1.0,2.0,72,0.00,,,0.00,Wunderground v.1.15,2013-01-19 13:14:00,
2013-01-19 06:19:00,23.7,16.3,30.39,NNE,13,2.0,2.0,73,0.00,,,0.00,Wunderground v.1.15,2013-01-19 13:19:00,
2013-01-19 06:24:00,23.5,16.1,30.39,NNE,13,3.0,3.0,73,0.00,,,0.00,Wunderground v.1.15,2013-01-19 13:24:00,
2013-01-19 06:29:00,23.3,16.2,30.40,North,349,4.0,5.0,74,0.00,,,0.00,Wunderground v.1.15,2013-01-19 13:29:00,
2013-01-19 06:34:00,23.2,16.1,30.40,North,355,5.0,6.0,74,0.00,,,0.00,Wunderground v.1.15,2013-01-19 13:34:00,
2013-01-19 06:39:00,22.9,15.8,30.40,North,350,5.0,8.0,74,0.00,,,0.00,Wunderground v.1.15,2013-01-19 13:39:00,
2013-01-19 06:44:00,22.7,15.7,30.40,North,11,2.0,5.0,74,0.00,,,0.00,Wunderground v.1.15,2013-01-19 13:44:00,
2013-01-19 06:49:00,22.5,15.5,30.40,North,5,4.0,5.0,74,0.00,,,0.00,Wunderground v.1.15,2013-01-19 13:49:00,
2013-01-19 06:54:00,22.3,15.9,30.40,North,355,4.0,6.0,76,0.00,,,0.00,Wunderground v.1.15,2013-01-19 13:54:00,
2013-01-19 06:59:00,22.3,15.9,30.40,North,10,4.0,6.0,76,0.00,,,0.00,Wunderground v.1.15,2013-01-19 13:59:00,
2013-01-19 07:04:00,22.2,15.8,30.40,North,10,3.0,5.0,76,0.00,,,0.00,Wunderground v.1.15,2013-01-19 14:04:00,
2013-01-19 07:09:00,22.1,15.7,30.40,NNW,346,3.0,5.0,76,0.00,,,0.00,Wunderground v.1.15,2013-01-19 14:09:00,
2013-01-19 07:14:00,22.0,15.6,30.40,NNW,346,4.0,4.0,76,0.00,,,0.00,Wunderground v.1.15,2013-01-19 14:14:00,
2013-01-19 07:20:00,21.8,15.4,30.40,North,351,3.0,3.0,76,0.00,,,0.00,Wunderground v.1.15,2013-01-19 14:20:00,
2013-01-19 07:25:00,21.6,15.2,30.41,North,351,2.0,5.0,76,0.00,,,0.00,Wunderground v.1.15,2013-01-19 14:25:00,
2013-01-19 07:31:00,21.2,14.8,30.41,North,360,2.0,3.0,76,0.00,,,0.00,Wunderground v.1.15,2013-01-19 14:31:00,
2013-01-19 07:36:00,21.0,14.9,30.41,North,355,1.0,3.0,77,0.00,,,0.00,Wunderground v.1.15,2013-01-19 14:36:00,
2013-01-19 07:41:00,20.9,15.1,30.41,North,5,0.0,1.0,78,0.00,,,0.00,Wunderground v.1.15,2013-01-19 14:41:00,
2013-01-19 07:46:00,20.9,15.1,30.42,NNW,346,2.0,3.0,78,0.00,,,0.00,Wunderground v.1.15,2013-01-19 14:46:00,
2013-01-19 07:51:00,21.3,15.8,30.43,NNW,338,6.0,6.0,79,0.00,,,0.00,Wunderground v.1.15,2013-01-19 14:51:00,
2013-01-19 07:56:00,22.4,16.9,30.43,NNW,338,4.0,6.0,79,0.00,,,0.00,Wunderground v.1.15,2013-01-19 14:56:00,
2013-01-19 08:01:00,23.3,17.2,30.43,NNW,346,3.0,4.0,77,0.00,,,0.00,Wunderground v.1.15,2013-01-19 15:01:00,
2013-01-19 08:06:00,24.1,17.3,30.44,NNW,344,3.0,4.0,75,0.00,,,0.00,Wunderground v.1.15,2013-01-19 15:06:00,
2013-01-19 08:12:00,24.9,17.8,30.44,North,5,2.0,4.0,74,0.00,,,0.00,Wunderground v.1.15,2013-01-19 15:12:00,
2013-01-19 08:17:00,25.9,17.8,30.44,NNE,17,4.0,8.0,71,0.00,,,0.00,Wunderground v.1.15,2013-01-19 15:17:00,
2013-01-19 08:22:00,26.8,18.0,30.44,North,355,4.0,6.0,69,0.00,,,0.00,Wunderground v.1.15,2013-01-19 15:22:00,
2013-01-19 08:27:00,27.3,18.1,30.44,North,360,4.0,8.0,68,0.00,,,0.00,Wunderground v.1.15,2013-01-19 15:27:00,
2013-01-19 08:32:00,27.7,17.8,30.44,North,9,5.0,7.0,66,0.00,,,0.00,Wunderground v.1.15,2013-01-19 15:32:00,
2013-01-19 08:37:00,28.1,18.2,30.44,NW,318,5.0,7.0,66,0.00,,,0.00,Wunderground v.1.15,2013-01-19 15:37:00,
2013-01-19 08:42:00,28.3,18.0,30.44,North,351,6.0,6.0,65,0.00,,,0.00,Wunderground v.1.15,2013-01-19 15:42:00,
2013-01-19 08:47:00,28.6,18.0,30.45,North,360,2.0,7.0,64,0.00,,,0.00,Wunderground v.1.15,2013-01-19 15:47:00,
2013-01-19 08:52:00,29.0,18.0,30.46,North,10,5.0,7.0,63,0.00,,,0.00,Wunderground v.1.15,2013-01-19 15:52:00,
2013-01-19 08:57:00,29.2,18.2,30.46,North,350,3.0,7.0,63,0.00,,,0.00,Wunderground v.1.15,2013-01-19 15:57:00,
2013-01-19 09:02:00,29.6,18.5,30.46,North,360,3.0,5.0,63,0.00,,,0.00,Wunderground v.1.15,2013-01-19 16:02:00,
2013-01-19 09:08:00,30.0,18.5,30.46,NNE,26,4.0,6.0,62,0.00,,,0.00,Wunderground v.1.15,2013-01-19 16:08:00,
2013-01-19 09:13:00,30.6,18.7,30.46,North,350,2.0,7.0,61,0.00,,,0.00,Wunderground v.1.15,2013-01-19 16:13:00,
2013-01-19 09:18:00,31.3,19.0,30.46,NNW,344,4.0,7.0,60,0.00,,,0.00,Wunderground v.1.15,2013-01-19 16:18:00,
2013-01-19 09:23:00,32.1,19.0,30.46,NE,48,6.0,9.0,58,0.00,,,0.00,Wunderground v.1.15,2013-01-19 16:23:00,
2013-01-19 09:28:00,32.8,19.2,30.46,NNE,30,4.0,9.0,57,0.00,,,0.00,Wunderground v.1.15,2013-01-19 16:28:00,
2013-01-19 09:33:00,33.3,19.3,30.46,NNE,24,4.0,7.0,56,0.00,,,0.00,Wunderground v.1.15,2013-01-19 16:33:00,
2013-01-19 09:38:00,33.9,19.4,30.46,North,5,1.0,7.0,55,0.00,,,0.00,Wunderground v.1.15,2013-01-19 16:38:00,
2013-01-19 09:43:00,34.5,19.5,30.47,NNE,32,7.0,7.0,54,0.00,,,0.00,Wunderground v.1.15,2013-01-19 16:43:00,
2013-01-19 09:48:00,35.3,19.4,30.47,NE,51,3.0,8.0,52,0.00,,,0.00,Wunderground v.1.15,2013-01-19 16:48:00,
2013-01-19 09:53:00,36.0,19.6,30.47,NE,43,2.0,4.0,51,0.00,,,0.00,Wunderground v.1.15,2013-01-19 16:53:00,
2013-01-19 09:58:00,36.8,19.4,30.46,NNE,28,7.0,10.0,49,0.00,,,0.00,Wunderground v.1.15,2013-01-19 16:58:00,
2013-01-19 10:03:00,37.1,19.2,30.46,NNW,348,9.0,9.0,48,0.00,,,0.00,Wunderground v.1.15,2013-01-19 17:03:00,
2013-01-19 10:08:00,37.5,19.6,30.46,NNW,347,3.0,10.0,48,0.00,,,0.00,Wunderground v.1.15,2013-01-19 17:08:00,
2013-01-19 10:13:00,38.0,19.0,30.46,NNE,16,6.0,7.0,46,0.00,,,0.00,Wunderground v.1.15,2013-01-19 17:13:00,
2013-01-19 10:18:00,38.7,19.2,30.46,NE,38,2.0,8.0,45,0.00,,,0.00,Wunderground v.1.15,2013-01-19 17:18:00,
2013-01-19 10:23:00,39.3,19.2,30.46,NE,50,4.0,7.0,44,0.00,,,0.00,Wunderground v.1.15,2013-01-19 17:23:00,
2013-01-19 10:28:00,39.9,19.2,30.46,NE,53,5.0,9.0,43,0.00,,,0.00,Wunderground v.1.15,2013-01-19 17:28:00,
2013-01-19 10:33:00,40.1,19.4,30.46,NNE,29,7.0,7.0,43,0.00,,,0.00,Wunderground v.1.15,2013-01-19 17:33:00,
2013-01-19 10:38:00,40.2,18.9,30.46,NNE,26,3.0,7.0,42,0.00,,,0.00,Wunderground v.1.15,2013-01-19 17:38:00,
2013-01-19 10:44:00,40.6,19.3,30.46,North,350,4.0,8.0,42,0.00,,,0.00,Wunderground v.1.15,2013-01-19 17:44:00,
2013-01-19 10:49:00,40.8,19.5,30.46,North,351,1.0,8.0,42,0.00,,,0.00,Wunderground v.1.15,2013-01-19 17:49:00,
2013-01-19 10:54:00,41.5,19.5,30.46,NNE,27,3.0,7.0,41,0.00,,,0.00,Wunderground v.1.15,2013-01-19 17:54:00,
2013-01-19 10:59:00,42.1,19.5,30.45,North,360,7.0,7.0,40,0.00,,,0.00,Wunderground v.1.15,2013-01-19 17:59:00,
2013-01-19 11:04:00,42.5,19.8,30.45,NNW,348,3.0,6.0,40,0.00,,,0.00,Wunderground v.1.15,2013-01-19 18:04:00,
2013-01-19 11:09:00,42.7,19.4,30.45,North,9,3.0,7.0,39,0.00,,,0.00,Wunderground v.1.15,2013-01-19 18:09:00,
2013-01-19 11:14:00,43.0,19.7,30.44,NE,40,3.0,5.0,39,0.00,,,0.00,Wunderground v.1.15,2013-01-19 18:14:00,
2013-01-19 11:21:00,43.8,19.8,30.44,North,355,5.0,7.0,38,0.00,,,0.00,Wunderground v.1.15,2013-01-19 18:21:00,
2013-01-19 11:27:00,44.3,20.3,30.43,North,360,2.0,8.0,38,0.00,,,0.00,Wunderground v.1.15,2013-01-19 18:27:00,
2013-01-19 11:32:00,44.6,19.9,30.43,NE,45,3.0,7.0,37,0.00,,,0.00,Wunderground v.1.15,2013-01-19 18:32:00,
2013-01-19 11:37:00,45.2,19.1,30.43,NE,50,4.0,9.0,35,0.00,,,0.00,Wunderground v.1.15,2013-01-19 18:37:00,
2013-01-19 11:42:00,45.4,19.3,30.42,NNE,17,2.0,5.0,35,0.00,,,0.00,Wunderground v.1.15,2013-01-19 18:42:00,
2013-01-19 11:47:00,45.7,19.6,30.42,NNW,335,5.0,7.0,35,0.00,,,0.00,Wunderground v.1.15,2013-01-19 18:47:00,
2013-01-19 11:52:00,45.7,19.6,30.41,NNE,33,4.0,4.0,35,0.00,,,0.00,Wunderground v.1.15,2013-01-19 18:52:00,
2013-01-19 11:58:00,45.9,20.4,30.41,SSE,148,4.0,4.0,36,0.00,,,0.00,Wunderground v.1.15,2013-01-19 18:58:00,
2013-01-19 12:03:00,46.5,20.3,30.40,ESE,115,3.0,4.0,35,0.00,,,0.00,Wunderground v.1.15,2013-01-19 19:03:00,
2013-01-19 12:08:00,46.8,19.9,30.40,ENE,69,3.0,5.0,34,0.00,,,0.00,Wunderground v.1.15,2013-01-19 19:08:00,
2013-01-19 12:14:00,46.8,19.9,30.39,ESE,104,3.0,3.0,34,0.00,,,0.00,Wunderground v.1.15,2013-01-19 19:14:00,
2013-01-19 12:19:00,47.3,20.3,30.39,East,101,0.0,6.0,34,0.00,,,0.00,Wunderground v.1.15,2013-01-19 19:19:00,
2013-01-19 12:26:00,48.0,20.2,30.38,SSE,150,1.0,4.0,33,0.00,,,0.00,Wunderground v.1.15,2013-01-19 19:26:00,
2013-01-19 12:31:00,48.2,20.4,30.38,NE,45,3.0,3.0,33,0.00,,,0.00,Wunderground v.1.15,2013-01-19 19:31:00,
2013-01-19 12:36:00,48.5,20.7,30.38,ENE,57,2.0,4.0,33,0.00,,,0.00,Wunderground v.1.15,2013-01-19 19:36:00,
2013-01-19 12:42:00,48.6,20.8,30.37,North,9,4.0,4.0,33,0.00,,,0.00,Wunderground v.1.15,2013-01-19 19:42:00,
2013-01-19 12:47:00,49.0,21.1,30.37,NNW,327,3.0,6.0,33,0.00,,,0.00,Wunderground v.1.15,2013-01-19 19:47:00,
2013-01-19 12:52:00,49.3,20.6,30.36,ENE,59,1.0,4.0,32,0.00,,,0.00,Wunderground v.1.15,2013-01-19 19:52:00,
2013-01-19 12:57:00,49.4,21.5,30.36,NNE,19,4.0,9.0,33,0.00,,,0.00,Wunderground v.1.15,2013-01-19 19:57:00,
2013-01-19 13:02:00,49.7,21.0,30.36,NNW,343,2.0,6.0,32,0.00,,,0.00,Wunderground v.1.15,2013-01-19 20:02:00,
2013-01-19 13:07:00,50.0,21.3,30.36,NE,38,2.0,6.0,32,0.00,,,0.00,Wunderground v.1.15,2013-01-19 20:07:00,
2013-01-19 13:14:00,49.9,21.2,30.36,ESE,115,4.0,4.0,32,0.00,,,0.00,Wunderground v.1.15,2013-01-19 20:14:00,
2013-01-19 13:19:00,50.0,21.3,30.36,ENE,76,4.0,6.0,32,0.00,,,0.00,Wunderground v.1.15,2013-01-19 20:19:00,
2013-01-19 13:24:00,50.4,20.9,30.35,East,84,3.0,6.0,31,0.00,,,0.00,Wunderground v.1.15,2013-01-19 20:24:00,
2013-01-19 13:29:00,50.5,20.9,30.35,NE,45,2.0,6.0,31,0.00,,,0.00,Wunderground v.1.15,2013-01-19 20:29:00,
2013-01-19 13:34:00,50.8,21.2,30.35,ENE,63,4.0,5.0,31,0.00,,,0.00,Wunderground v.1.15,2013-01-19 20:34:00,
2013-01-19 13:39:00,50.8,21.2,30.35,ENE,63,1.0,7.0,31,0.00,,,0.00,Wunderground v.1.15,2013-01-19 20:39:00,
2013-01-19 13:44:00,50.7,21.1,30.35,SSE,156,2.0,4.0,31,0.00,,,0.00,Wunderground v.1.15,2013-01-19 20:44:00,
2013-01-19 13:49:00,51.0,21.4,30.34,NNE,26,4.0,4.0,31,0.00,,,0.00,Wunderground v.1.15,2013-01-19 20:49:00,
2013-01-19 13:56:00,51.6,21.1,30.34,NE,42,3.0,5.0,30,0.00,,,0.00,Wunderground v.1.15,2013-01-19 20:56:00,
2013-01-19 14:01:00,51.5,21.0,30.34,NNW,331,2.0,2.0,30,0.00,,,0.00,Wunderground v.1.15,2013-01-19 21:01:00,
2013-01-19 14:06:00,51.7,20.4,30.34,NNW,331,3.0,4.0,29,0.00,,,0.00,Wunderground v.1.15,2013-01-19 21:06:00,
2013-01-19 14:11:00,52.4,20.2,30.34,NE,34,1.0,2.0,28,0.00,,,0.00,Wunderground v.1.15,2013-01-19 21:11:00,
2013-01-19 14:16:00,53.0,19.9,30.34,NNW,348,2.0,5.0,27,0.00,,,0.00,Wunderground v.1.15,2013-01-19 21:16:00,
2013-01-19 14:22:00,53.3,19.2,30.33,NE,54,1.0,2.0,26,0.00,,,0.00,Wunderground v.1.15,2013-01-19 21:22:00,
2013-01-19 14:27:00,53.4,19.3,30.33,NW,321,0.0,3.0,26,0.00,,,0.00,Wunderground v.1.15,2013-01-19 21:27:00,
2013-01-19 14:32:00,53.6,17.6,30.33,NW,319,3.0,3.0,24,0.00,,,0.00,Wunderground v.1.15,2013-01-19 21:32:00,
2013-01-19 14:37:00,53.8,17.8,30.33,NE,36,2.0,5.0,24,0.00,,,0.00,Wunderground v.1.15,2013-01-19 21:37:00,
2013-01-19 14:43:00,53.8,17.8,30.33,ENE,71,0.0,3.0,24,0.00,,,0.00,Wunderground v.1.15,2013-01-19 21:43:00,
2013-01-19 14:48:00,53.8,17.8,30.33,North,350,2.0,6.0,24,0.00,,,0.00,Wunderground v.1.15,2013-01-19 21:48:00,
2013-01-19 14:53:00,54.4,17.3,30.33,North,351,10.0,10.0,23,0.00,,,0.00,Wunderground v.1.15,2013-01-19 21:53:00,
2013-01-19 14:58:00,54.8,16.6,30.33,North,351,5.0,10.0,22,0.00,,,0.00,Wunderground v.1.15,2013-01-19 21:58:00,
2013-01-19 15:03:00,55.0,16.8,30.33,NNE,28,3.0,7.0,22,0.00,,,0.00,Wunderground v.1.15,2013-01-19 22:03:00,
2013-01-19 15:08:00,55.2,17.0,30.33,North,350,3.0,7.0,22,0.00,,,0.00,Wunderground v.1.15,2013-01-19 22:08:00,
2013-01-19 15:14:00,55.2,17.0,30.32,North,350,7.0,9.0,22,0.00,,,0.00,weatherlink.com 1.10,2013-01-19 22:14:00,
2013-01-19 15:19:00,55.2,17.0,30.33,NNW,338,2.0,8.0,22,0.00,,,0.00,Wunderground v.1.15,2013-01-19 22:19:00,
2013-01-19 15:24:00,55.2,17.0,30.32,NNW,331,6.0,8.0,22,0.00,,,0.00,Wunderground v.1.15,2013-01-19 22:24:00,
2013-01-19 15:29:00,55.3,17.0,30.32,NNW,328,5.0,9.0,22,0.00,,,0.00,Wunderground v.1.15,2013-01-19 22:29:00,
2013-01-19 15:35:00,55.2,17.0,30.32,NNW,333,5.0,8.0,22,0.00,,,0.00,Wunderground v.1.15,2013-01-19 22:35:00,
2013-01-19 15:40:00,55.2,17.0,30.33,North,351,6.0,6.0,22,0.00,,,0.00,Wunderground v.1.15,2013-01-19 22:40:00,
2013-01-19 15:46:00,55.1,16.9,30.32,North,10,5.0,8.0,22,0.00,,,0.00,Wunderground v.1.15,2013-01-19 22:46:00,
2013-01-19 15:51:00,55.0,16.8,30.33,North,350,4.0,6.0,22,0.00,,,0.00,Wunderground v.1.15,2013-01-19 22:51:00,
2013-01-19 15:56:00,54.9,16.7,30.33,NNE,15,5.0,8.0,22,0.00,,,0.00,Wunderground v.1.15,2013-01-19 22:56:00,
2013-01-19 16:01:00,54.8,16.6,30.33,NE,39,4.0,5.0,22,0.00,,,0.00,Wunderground v.1.15,2013-01-19 23:01:00,
2013-01-19 16:06:00,54.8,16.6,30.33,North,360,4.0,6.0,22,0.00,,,0.00,Wunderground v.1.15,2013-01-19 23:06:00,
2013-01-19 16:12:00,55.1,16.9,30.33,NNE,24,3.0,4.0,22,0.00,,,0.00,Wunderground v.1.15,2013-01-19 23:12:00,
2013-01-19 16:17:00,55.2,17.0,30.33,NNE,24,5.0,7.0,22,0.00,,,0.00,Wunderground v.1.15,2013-01-19 23:17:00,
2013-01-19 16:22:00,55.3,17.0,30.33,NNE,19,3.0,6.0,22,0.00,,,0.00,Wunderground v.1.15,2013-01-19 23:22:00,
2013-01-19 16:27:00,55.4,17.1,30.33,North,355,4.0,6.0,22,0.00,,,0.00,Wunderground v.1.15,2013-01-19 23:27:00,
2013-01-19 16:32:00,55.2,17.0,30.33,NNW,346,3.0,8.0,22,0.00,,,0.00,Wunderground v.1.15,2013-01-19 23:32:00,
2013-01-19 16:38:00,54.9,16.7,30.33,North,355,9.0,9.0,22,0.00,,,0.00,Wunderground v.1.15,2013-01-19 23:38:00,
2013-01-19 16:43:00,54.6,17.5,30.33,North,350,5.0,6.0,23,0.00,,,0.00,Wunderground v.1.15,2013-01-19 23:43:00,
2013-01-19 16:48:00,54.2,17.1,30.33,NNW,345,7.0,7.0,23,0.00,,,0.00,Wunderground v.1.15,2013-01-19 23:48:00,
2013-01-19 16:53:00,53.9,17.9,30.33,NNW,333,8.0,9.0,24,0.00,,,0.00,Wunderground v.1.15,2013-01-19 23:53:00,
2013-01-19 16:58:00,53.3,17.4,30.34,North,349,9.0,10.0,24,0.00,,,0.00,Wunderground v.1.15,2013-01-19 23:58:00,
2013-01-19 17:04:00,52.8,16.9,30.34,NNW,337,8.0,8.0,24,0.00,,,0.00,Wunderground v.1.15,2013-01-20 00:04:00,
2013-01-19 17:09:00,52.3,17.5,30.34,NW,323,4.0,8.0,25,0.00,,,0.00,Wunderground v.1.15,2013-01-20 00:09:00,
2013-01-19 17:14:00,51.7,17.9,30.34,North,349,3.0,7.0,26,0.00,,,0.00,Wunderground v.1.15,2013-01-20 00:14:00,
2013-01-19 17:19:00,51.2,17.4,30.34,NNW,344,5.0,8.0,26,0.00,,,0.00,Wunderground v.1.15,2013-01-20 00:19:00,
2013-01-19 17:24:00,50.6,17.8,30.34,North,355,2.0,8.0,27,0.00,,,0.00,Wunderground v.1.15,2013-01-20 00:24:00,
2013-01-19 17:29:00,49.9,18.0,30.34,North,350,4.0,8.0,28,0.00,,,0.00,Wunderground v.1.15,2013-01-20 00:29:00,
2013-01-19 17:34:00,49.2,18.3,30.34,North,355,4.0,5.0,29,0.00,,,0.00,Wunderground v.1.15,2013-01-20 00:34:00,
2013-01-19 17:39:00,48.7,17.8,30.34,North,355,4.0,5.0,29,0.00,,,0.00,Wunderground v.1.15,2013-01-20 00:39:00,
2013-01-19 17:44:00,48.0,18.0,30.34,North,350,2.0,4.0,30,0.00,,,0.00,Wunderground v.1.15,2013-01-20 00:44:00,
2013-01-19 17:49:00,47.2,18.1,30.35,North,351,4.0,4.0,31,0.00,,,0.00,Wunderground v.1.15,2013-01-20 00:49:00,
2013-01-19 17:55:00,46.5,18.2,30.35,North,355,1.0,3.0,32,0.00,,,0.00,Wunderground v.1.15,2013-01-20 00:55:00,
2013-01-19 18:01:00,45.6,18.1,30.35,North,355,2.0,2.0,33,0.00,,,0.00,Wunderground v.1.15,2013-01-20 01:01:00,
2013-01-19 18:06:00,44.9,18.2,30.35,North,355,3.0,3.0,34,0.00,,,0.00,Wunderground v.1.15,2013-01-20 01:06:00,
2013-01-19 18:11:00,44.2,17.6,30.35,North,360,1.0,2.0,34,0.00,,,0.00,Wunderground v.1.15,2013-01-20 01:11:00,
2013-01-19 18:16:00,43.6,17.7,30.36,North,355,3.0,3.0,35,0.00,,,0.00,Wunderground v.1.15,2013-01-20 01:16:00,
2013-01-19 18:21:00,43.0,17.8,30.36,North,360,3.0,3.0,36,0.00,,,0.00,Wunderground v.1.15,2013-01-20 01:21:00,
2013-01-19 18:27:00,42.4,17.9,30.36,North,360,0.0,4.0,37,0.00,,,0.00,Wunderground v.1.15,2013-01-20 01:27:00,
2013-01-19 18:32:00,41.8,18.0,30.36,North,360,1.0,4.0,38,0.00,,,0.00,Wunderground v.1.15,2013-01-20 01:32:00,
2013-01-19 18:37:00,41.4,18.3,30.37,North,360,2.0,4.0,39,0.00,,,0.00,Wunderground v.1.15,2013-01-20 01:37:00,
2013-01-19 18:42:00,40.9,17.8,30.37,North,360,1.0,2.0,39,0.00,,,0.00,Wunderground v.1.15,2013-01-20 01:42:00,
2013-01-19 18:47:00,40.3,17.9,30.37,North,360,1.0,2.0,40,0.00,,,0.00,Wunderground v.1.15,2013-01-20 01:47:00,
2013-01-19 18:53:00,39.8,18.0,30.37,North,360,0.0,1.0,41,0.00,,,0.00,Wunderground v.1.15,2013-01-20 01:53:00,
2013-01-19 18:58:00,39.2,18.0,30.37,North,360,0.0,2.0,42,0.00,,,0.00,Wunderground v.1.15,2013-01-20 01:58:00,
2013-01-19 19:03:00,38.5,17.4,30.37,North,360,2.0,2.0,42,0.00,,,0.00,Wunderground v.1.15,2013-01-20 02:03:00,
2013-01-19 19:08:00,37.9,17.4,30.37,North,360,2.0,3.0,43,0.00,,,0.00,Wunderground v.1.15,2013-01-20 02:08:00,
2013-01-19 19:13:00,37.2,17.3,30.37,North,360,1.0,3.0,44,0.00,,,0.00,Wunderground v.1.15,2013-01-20 02:13:00,
2013-01-19 19:18:00,36.7,17.8,30.37,North,360,3.0,3.0,46,0.00,,,0.00,Wunderground v.1.15,2013-01-20 02:18:00,
2013-01-19 19:23:00,36.2,17.4,30.38,North,360,3.0,3.0,46,0.00,,,0.00,Wunderground v.1.15,2013-01-20 02:23:00,
2013-01-19 19:28:00,35.7,17.9,30.38,North,360,3.0,3.0,48,0.00,,,0.00,Wunderground v.1.15,2013-01-20 02:28:00,
2013-01-19 19:33:00,35.3,18.5,30.38,North,360,1.0,2.0,50,0.00,,,0.00,Wunderground v.1.15,2013-01-20 02:33:00,
2013-01-19 19:39:00,35.1,17.8,30.38,North,360,1.0,2.0,49,0.00,,,0.00,Wunderground v.1.15,2013-01-20 02:39:00,
2013-01-19 19:44:00,34.9,18.1,30.38,North,360,2.0,2.0,50,0.00,,,0.00,Wunderground v.1.15,2013-01-20 02:44:00,
2013-01-19 19:49:00,34.6,17.4,30.38,North,360,2.0,3.0,49,0.00,,,0.00,Wunderground v.1.15,2013-01-20 02:49:00,
2013-01-19 19:54:00,34.2,18.0,30.38,North,360,1.0,3.0,51,0.00,,,0.00,weatherlink.com 1.10,2013-01-20 02:54:00,
2013-01-19 19:59:00,33.8,17.6,30.38,North,360,2.0,2.0,51,0.00,,,0.00,Wunderground v.1.15,2013-01-20 02:59:00,
2013-01-19 20:04:00,33.3,17.1,30.38,North,360,1.0,3.0,51,0.00,,,0.00,Wunderground v.1.15,2013-01-20 03:04:00,
2013-01-19 20:09:00,32.9,18.1,30.39,North,360,2.0,3.0,54,0.00,,,0.00,Wunderground v.1.15,2013-01-20 03:09:00,
2013-01-19 20:14:00,32.8,18.0,30.39,North,360,2.0,3.0,54,0.00,,,0.00,Wunderground v.1.15,2013-01-20 03:14:00,
2013-01-19 20:20:00,32.6,18.2,30.39,North,360,2.0,3.0,55,0.00,,,0.00,Wunderground v.1.15,2013-01-20 03:20:00,
2013-01-19 20:25:00,32.4,18.0,30.39,North,360,2.0,3.0,55,0.00,,,0.00,Wunderground v.1.15,2013-01-20 03:25:00,
2013-01-19 20:30:00,32.2,18.2,30.39,North,360,3.0,4.0,56,0.00,,,0.00,Wunderground v.1.15,2013-01-20 03:30:00,
2013-01-19 20:35:00,32.2,18.2,30.40,North,360,3.0,4.0,56,0.00,,,0.00,Wunderground v.1.15,2013-01-20 03:35:00,
2013-01-19 20:40:00,32.4,18.4,30.39,North,360,3.0,3.0,56,0.00,,,0.00,Wunderground v.1.15,2013-01-20 03:40:00,
2013-01-19 20:46:00,32.4,18.0,30.40,North,360,1.0,3.0,55,0.00,,,0.00,Wunderground v.1.15,2013-01-20 03:46:00,
2013-01-19 20:52:00,32.2,18.2,30.40,North,360,0.0,2.0,56,0.00,,,0.00,Wunderground v.1.15,2013-01-20 03:52:00,
2013-01-19 20:57:00,31.9,17.5,30.40,North,360,0.0,2.0,55,0.00,,,0.00,Wunderground v.1.15,2013-01-20 03:57:00,
2013-01-19 21:02:00,31.7,17.4,30.40,North,360,0.0,1.0,55,0.00,,,0.00,Wunderground v.1.15,2013-01-20 04:02:00,
2013-01-19 21:07:00,31.2,17.3,30.40,North,360,0.0,1.0,56,0.00,,,0.00,Wunderground v.1.15,2013-01-20 04:07:00,
2013-01-19 21:12:00,30.7,17.0,30.39,North,360,0.0,2.0,58,0.00,,,0.00,weatherlink.com 1.10,2013-01-20 04:12:00,
2013-01-19 21:17:00,30.2,17.6,30.40,North,360,0.0,0.0,59,0.00,,,0.00,Wunderground v.1.15,2013-01-20 04:17:00,
2013-01-19 21:23:00,30.0,17.4,30.40,North,360,0.0,1.0,59,0.00,,,0.00,Wunderground v.1.15,2013-01-20 04:23:00,
2013-01-19 21:28:00,29.9,18.1,30.40,North,360,2.0,2.0,61,0.00,,,0.00,Wunderground v.1.15,2013-01-20 04:28:00,
2013-01-19 21:33:00,29.6,17.0,30.40,North,360,0.0,0.0,59,0.00,,,0.00,Wunderground v.1.15,2013-01-20 04:33:00,
2013-01-19 21:38:00,29.2,16.6,30.40,North,360,1.0,2.0,59,0.00,,,0.00,Wunderground v.1.15,2013-01-20 04:38:00,
2013-01-19 21:43:00,28.7,16.6,30.40,North,360,0.0,1.0,60,0.00,,,0.00,Wunderground v.1.15,2013-01-20 04:43:00,
2013-01-19 21:48:00,28.3,17.3,30.40,North,360,0.0,2.0,63,0.00,,,0.00,Wunderground v.1.15,2013-01-20 04:48:00,
2013-01-19 21:53:00,28.1,17.5,30.40,North,360,0.0,0.0,64,0.00,,,0.00,Wunderground v.1.15,2013-01-20 04:53:00,
2013-01-19 21:58:00,27.9,17.3,30.41,North,360,0.0,0.0,64,0.00,,,0.00,Wunderground v.1.15,2013-01-20 04:58:00,
2013-01-19 22:00:00,27.8,17.2,30.41,North,360,0.0,0.0,64,0.00,,,0.00,Wunderground v.1.15,2013-01-20 05:00:00,
2013-01-19 22:01:00,27.8,17.2,30.41,North,360,0.0,0.0,64,0.00,,,0.00,Wunderground v.1.15,2013-01-20 05:01:00,
2013-01-19 22:03:00,27.7,17.1,30.41,North,360,0.0,0.0,64,0.00,,,0.00,Wunderground v.1.15,2013-01-20 05:03:00,
2013-01-19 22:04:00,27.7,17.5,30.41,North,360,0.0,0.0,65,0.00,,,0.00,Wunderground v.1.15,2013-01-20 05:04:00,
2013-01-19 22:09:00,27.8,17.6,30.41,North,360,0.0,0.0,65,0.00,,,0.00,Wunderground v.1.15,2013-01-20 05:09:00,
2013-01-19 22:14:00,27.9,17.6,30.41,North,360,0.0,1.0,65,0.00,,,0.00,Wunderground v.1.15,2013-01-20 05:14:00,
2013-01-19 22:19:00,28.1,17.8,30.41,North,360,1.0,2.0,65,0.00,,,0.00,Wunderground v.1.15,2013-01-20 05:19:00,
2013-01-19 22:24:00,28.1,17.5,30.41,North,360,1.0,2.0,64,0.00,,,0.00,Wunderground v.1.15,2013-01-20 05:24:00,
2013-01-19 22:29:00,27.9,17.3,30.41,North,360,0.0,2.0,64,0.00,,,0.00,Wunderground v.1.15,2013-01-20 05:29:00,
2013-01-19 22:34:00,27.6,16.6,30.41,North,360,0.0,1.0,63,0.00,,,0.00,Wunderground v.1.15,2013-01-20 05:34:00,
2013-01-19 22:39:00,27.3,16.4,30.41,North,360,0.0,1.0,63,0.00,,,0.00,Wunderground v.1.15,2013-01-20 05:39:00,
2013-01-19 22:44:00,27.0,16.4,30.42,North,360,0.0,1.0,64,0.00,,,0.00,Wunderground v.1.15,2013-01-20 05:44:00,
2013-01-19 22:49:00,26.6,16.1,30.42,North,360,0.0,1.0,64,0.00,,,0.00,Wunderground v.1.15,2013-01-20 05:49:00,
2013-01-19 22:54:00,26.2,16.0,30.42,North,360,0.0,0.0,65,0.00,,,0.00,Wunderground v.1.15,2013-01-20 05:54:00,
2013-01-19 22:59:00,25.9,15.7,30.42,North,360,2.0,2.0,65,0.00,,,0.00,Wunderground v.1.15,2013-01-20 05:59:00,
2013-01-19 23:05:00,25.7,16.6,30.42,North,360,2.0,3.0,68,0.00,,,0.00,Wunderground v.1.15,2013-01-20 06:05:00,
2013-01-19 23:10:00,25.7,16.6,30.42,North,360,1.0,3.0,68,0.00,,,0.00,Wunderground v.1.15,2013-01-20 06:10:00,
2013-01-19 23:15:00,25.8,17.0,30.41,North,360,1.0,3.0,69,0.00,,,0.00,Wunderground v.1.15,2013-01-20 06:15:00,
2013-01-19 23:21:00,25.8,16.3,30.41,North,360,2.0,2.0,67,0.00,,,0.00,Wunderground v.1.15,2013-01-20 06:21:00,
2013-01-19 23:27:00,25.6,16.2,30.42,North,360,1.0,2.0,67,0.00,,,0.00,Wunderground v.1.15,2013-01-20 06:27:00,
2013-01-19 23:32:00,25.3,16.2,30.42,North,360,1.0,2.0,68,0.00,,,0.00,Wunderground v.1.15,2013-01-20 06:32:00,
2013-01-19 23:37:00,25.3,16.5,30.42,North,360,0.0,2.0,69,0.00,,,0.00,Wunderground v.1.15,2013-01-20 06:37:00,
2013-01-19 23:42:00,25.2,15.8,30.41,North,360,1.0,2.0,67,0.00,,,0.00,Wunderground v.1.15,2013-01-20 06:42:00,
2013-01-19 23:47:00,24.9,16.5,30.41,North,360,2.0,3.0,70,0.00,,,0.00,Wunderground v.1.15,2013-01-20 06:47:00,
2013-01-19 23:52:00,24.6,16.2,30.41,North,360,2.0,2.0,70,0.00,,,0.00,Wunderground v.1.15,2013-01-20 06:52:00,
2013-01-19 23:57:00,24.5,16.4,30.41,North,360,1.0,3.0,71,0.00,,,0.00,Wunderground v.1.15,2013-01-20 06:57:00,